Hourly Weather Roundup
Issued by NWS Central Illinois

Home | Current Version | Previous Version | Text Only | Print | Product List | Glossary On
Versions: 1 2 3 4 5 6 7 8 9 10 11 12 13 14 15 16 17 18 19 20 21 22 23 24 25 26 27 28 29 30 31 32 33 34 35 36 37 38 39 40 41 42 43 44 45 46 47 48 49 50
000
NZUS43 KILX 260810
HWRILX

AREA WEATHER ROUNDUP
NATIONAL WEATHER SERVICE, LINCOLN IL
200 AM CST WED NOV 26 2014


CITY           SKY/WX    TMP DP  RH WIND       PRES   REMARKS
BLOOMINGTON    CLEAR     20  19  96 SE5       30.14S WCI  14
CHAMPAIGN      CLEAR     20  17  88 E6        30.15F WCI  12
DECATUR        CLEAR     22  20  92 CALM      30.14F
FLORA          CLEAR     22  22  97 CALM      30.16S
GALESBURG      CLEAR     19  18  96 E5        30.10F WCI  13
JACKSONVILLE   CLEAR     28  24  86 SE6       30.11S WCI  22
LACON          CLEAR     17  15  90 CALM      30.14S
LAWRENCEVILLE  CLEAR     26  24  92 E5        30.18S WCI  20
LITCHFIELD     CLEAR     24  22  91 SE6       30.12S WCI  17
$$


CITY           SKY/WX    TMP DP  RH WIND       PRES   REMARKS
LINCOLN        CLEAR     23  21  93 CALM      30.15F
MACOMB         CLEAR     22  21  96 CALM      30.12S
MATTOON        CLEAR     24  21  88 E3        30.14S
MT CARMEL AP   CLEAR     28  25  86 E3        30.17S
OLNEY-NOBLE AP CLEAR     23  21  93 CALM      30.17S
PARIS          CLEAR     24  22  94 CALM      30.17S
PEORIA         FAIR      24  19  81 SE3       30.13F
PONTIAC        CLEAR     20  18  93 E5        30.17S WCI  13
RANTOUL        CLEAR     22  19  90 CALM      30.15F
ROBINSON       CLEAR     24  22  93 E3        30.18S
SPRINGFIELD    CLEAR     24  22  91 SE7       30.12F WCI  16
TAYLORVILLE    CLEAR     25  23  93 SE6       30.13F WCI  18
$$

...REGIONAL REPORTS...


CITY           SKY/WX    TMP DP  RH WIND       PRES   REMARKS
CHICAGO O`HARE MOCLDY    20  15  81 CALM      30.17S
KANKAKEE       CLEAR    N/A N/A N/A CALM      30.18S
MOLINE         CLEAR     12   9  87 E6        30.11F WCI   3
MOUNT VERNON   CLEAR     21  16  79 CALM      30.15F
PITTSFIELD     PTCLDY    28  24  83 SE5       30.10S WCI  23
QUINCY         PTCLDY    26  20  77 SE6       30.07F WCI  19
ROCKFORD       PTCLDY    10   7  87 CALM      30.16F FOG
$$


CITY           SKY/WX    TMP DP  RH WIND       PRES   REMARKS
BURLINGTON     PTCLDY    24  21  88 SE6       30.08F WCI  17
CEDAR RAPIDS   MOCLDY    20  18  92 E7        30.04F WCI  11
DES MOINES     CLOUDY    33  18  53 S6        29.96S WCI  28
KIRKSVILLE     MOCLDY    28  21  75 SE8       30.01F WCI  20
OTTUMWA        MOCLDY    26  18  71 SE10      29.99F WCI  16
ST LOUIS       MOCLDY    27  22  81 E8        30.11F WCI  19
$$


CITY           SKY/WX    TMP DP  RH WIND       PRES   REMARKS
TERRE HAUTE    PTCLDY    23  20  88 E6        30.16F WCI  16
EVANSVILLE     CLEAR     27  23  85 N3        30.18R
INDIANAPOLIS   CLOUDY    26  20  77 N3        30.15S
LAFAYETTE      CLOUDY    24  19  81 CALM      30.17S
MADISON        CLEAR     12  10  92 N3        30.14R
MILWAUKEE      PTCLDY    18  13  80 SW3       30.18S
$$





USA.gov is the U.S. government's official web portal to all federal, state and local government web resources and services.